When you browse on this site, cookies collect data to enhance your experience and personalize the content and advertising you see.
Visit our Privacy Policy to learn more. By continuing to use the site, you agree to this use of cookies and data.
  • In Romania
  • List of Countries
  • For 7 days
  • Water Temperature
  • Satellite Maps
  • Weather Map
  • Weather Widgets
  • user-avatar
    Login

    Hourly Weather Gnatowice

    Today, 17 June, Monday

    Time Temperature Precipitation Wind Pressure Humidity
    00:00 +18°C° 0 mm 3 mps 744 mmHg 90%
    01:00 +18°C° 0 mm 3 mps 745 mmHg 89%
    02:00 +18°C° 0 mm 3 mps 745 mmHg 89%
    03:00 +18°C° 0 mm 2 mps 745 mmHg 88%
    04:00 +17°C° 0 mm 2 mps 745 mmHg 88%
    05:00 +18°C° 0 mm 2 mps 745 mmHg 83%
    06:00 +18°C° 0 mm 2 mps 746 mmHg 78%
    07:00 +18°C° 0 mm 2 mps 746 mmHg 74%
    08:00 +19°C° 0 mm 3 mps 746 mmHg 68%
    09:00 +20°C° 0 mm 3 mps 746 mmHg 63%
    10:00 +21°C° 0 mm 3 mps 746 mmHg 58%
    11:00 +22°C° 0 mm 3 mps 746 mmHg 56%
    12:00 +24°C° 0 mm 3 mps 746 mmHg 55%
    13:00 +25°C° 0 mm 2 mps 746 mmHg 53%
    14:00 +25°C° 0 mm 2 mps 745 mmHg 55%
    15:00 +25°C° 0 mm 2 mps 745 mmHg 57%
    16:00 +25°C° 0 mm 2 mps 745 mmHg 58%
    17:00 +24°C° 0 mm 2 mps 745 mmHg 64%
    18:00 +23°C° 0 mm 2 mps 745 mmHg 69%
    19:00 +21°C° 0 mm 2 mps 745 mmHg 74%
    20:00 +20°C° 0 mm 2 mps 745 mmHg 77%
    21:00 +19°C° 0 mm 2 mps 745 mmHg 80%
    22:00 +18°C° 0 mm 2 mps 745 mmHg 83%
    23:00 +18°C° 0 mm 2 mps 745 mmHg 86%

    Tomorrow, 18 June, Tuesday

    Time Temperature Precipitation Wind Pressure Humidity
    00:00 +17°C° 0 mm 2 mps 745 mmHg 88%
    01:00 +17°C° 0 mm 2 mps 745 mmHg 91%
    02:00 +17°C° 0 mm 2 mps 745 mmHg 92%
    03:00 +16°C° 0 mm 2 mps 745 mmHg 93%
    04:00 +16°C° 0 mm 2 mps 744 mmHg 95%
    05:00 +17°C° 0 mm 2 mps 745 mmHg 91%
    06:00 +18°C° 0 mm 3 mps 745 mmHg 88%
    07:00 +19°C° 0 mm 3 mps 745 mmHg 84%
    08:00 +20°C° 0 mm 3 mps 745 mmHg 82%
    09:00 +20°C° 0 mm 4 mps 745 mmHg 80%
    10:00 +21°C° 0 mm 4 mps 745 mmHg 78%
    11:00 +22°C° 0 mm 4 mps 744 mmHg 76%
    12:00 +22°C° 0 mm 4 mps 744 mmHg 74%
    13:00 +23°C° 0 mm 4 mps 743 mmHg 72%
    14:00 +23°C° 0 mm 4 mps 743 mmHg 75%
    15:00 +22°C° 0 mm 4 mps 743 mmHg 77%
    16:00 +22°C° 0 mm 4 mps 743 mmHg 79%
    17:00 +22°C° 0 mm 4 mps 742 mmHg 81%
    18:00 +22°C° 0 mm 4 mps 742 mmHg 84%
    19:00 +21°C° 0 mm 4 mps 742 mmHg 86%
    20:00 +21°C° 0.4 mm 4 mps 742 mmHg 88%
    21:00 +21°C° 0.4 mm 4 mps 742 mmHg 91%
    22:00 +20°C° 0.4 mm 4 mps 742 mmHg 93%
    23:00 +20°C° 0.4 mm 4 mps 742 mmHg 94%

    Day after tomorrow, 19 June, Wednesday

    Time Temperature Precipitation Wind Pressure Humidity
    00:00 +19°C° 0.4 mm 3 mps 741 mmHg 95%
    01:00 +19°C° 0.4 mm 3 mps 741 mmHg 96%
    02:00 +18°C° 0.1 mm 2 mps 741 mmHg 96%
    03:00 +19°C° 0.1 mm 1 mps 741 mmHg 97%
    04:00 +19°C° 0.1 mm 1 mps 740 mmHg 97%
    05:00 +20°C° 0 mm 1 mps 741 mmHg 93%
    06:00 +21°C° 0 mm 1 mps 741 mmHg 89%
    07:00 +23°C° 0 mm 1 mps 741 mmHg 86%
    08:00 +24°C° 0.1 mm 1 mps 741 mmHg 79%
    09:00 +24°C° 0.1 mm 0 mps 741 mmHg 73%
    10:00 +25°C° 0.1 mm 0 mps 740 mmHg 67%
    11:00 +28°C° 0.1 mm 1 mps 740 mmHg 63%
    12:00 +29°C° 0.1 mm 1 mps 740 mmHg 59%
    13:00 +30°C° 0.1 mm 1 mps 740 mmHg 56%
    14:00 +28°C° 1.1 mm 2 mps 740 mmHg 64%
    15:00 +26°C° 1.1 mm 3 mps 739 mmHg 73%
    16:00 +25°C° 1.1 mm 4 mps 739 mmHg 82%
    17:00 +24°C° 0.2 mm 3 mps 739 mmHg 82%
    18:00 +24°C° 0.2 mm 2 mps 739 mmHg 82%
    19:00 +23°C° 0.2 mm 1 mps 739 mmHg 83%
    20:00 +23°C° 0 mm 1 mps 739 mmHg 84%
    21:00 +22°C° 0 mm 1 mps 739 mmHg 84%
    22:00 +21°C° 0 mm 1 mps 740 mmHg 85%
    23:00 +21°C° 0 mm 1 mps 739 mmHg 86%

    20 June, Thursday

    Time Temperature Precipitation Wind Pressure Humidity
    00:00 +20°C° 0 mm 1 mps 739 mmHg 87%
    01:00 +20°C° 0 mm 1 mps 739 mmHg 88%
    02:00 +18°C° 0 mm 0 mps 739 mmHg 87%
    03:00 +18°C° 0 mm 0 mps 739 mmHg 86%
    04:00 +18°C° 0 mm 0 mps 739 mmHg 86%
    05:00 +19°C° 0 mm 0 mps 739 mmHg 84%
    06:00 +20°C° 0 mm 0 mps 739 mmHg 81%
    07:00 +23°C° 0 mm 1 mps 740 mmHg 79%
    08:00 +25°C° 0.2 mm 1 mps 740 mmHg 75%
    09:00 +26°C° 0.2 mm 1 mps 740 mmHg 70%
    10:00 +27°C° 0.2 mm 1 mps 740 mmHg 66%
    11:00 +28°C° 0.4 mm 1 mps 740 mmHg 63%
    12:00 +29°C° 0.4 mm 1 mps 740 mmHg 61%
    13:00 +29°C° 0.4 mm 1 mps 739 mmHg 58%
    14:00 +29°C° 1 mm 1 mps 739 mmHg 60%
    15:00 +29°C° 1 mm 1 mps 739 mmHg 63%
    16:00 +29°C° 1 mm 1 mps 739 mmHg 65%
    17:00 +28°C° 0.4 mm 1 mps 739 mmHg 70%
    18:00 +26°C° 0.4 mm 1 mps 739 mmHg 75%
    19:00 +25°C° 0.4 mm 1 mps 739 mmHg 79%
    20:00 +24°C° 0.7 mm 1 mps 740 mmHg 82%
    21:00 +23°C° 0.7 mm 1 mps 740 mmHg 85%
    22:00 +22°C° 0.7 mm 1 mps 740 mmHg 88%
    23:00 +21°C° 0.1 mm 1 mps 740 mmHg 89%

    21 June, Friday

    Time Temperature Precipitation Wind Pressure Humidity
    00:00 +21°C° 0.1 mm 1 mps 740 mmHg 89%
    01:00 +19°C° 0.1 mm 0 mps 740 mmHg 90%
    02:00 +18°C° 0 mm 0 mps 739 mmHg 90%
    03:00 +20°C° 0 mm 1 mps 739 mmHg 91%
    04:00 +20°C° 0 mm 1 mps 739 mmHg 91%
    05:00 +21°C° 0 mm 1 mps 740 mmHg 88%
    06:00 +23°C° 0 mm 1 mps 740 mmHg 84%
    07:00 +24°C° 0 mm 1 mps 740 mmHg 80%
    08:00 +26°C° 0.1 mm 1 mps 740 mmHg 75%
    09:00 +27°C° 0.1 mm 1 mps 740 mmHg 69%
    10:00 +28°C° 0.1 mm 2 mps 740 mmHg 63%
    11:00 +29°C° 0.1 mm 2 mps 740 mmHg 60%
    12:00 +30°C° 0.1 mm 1 mps 740 mmHg 57%
    13:00 +31°C° 0.1 mm 1 mps 739 mmHg 54%
    14:00 +30°C° 0.4 mm 2 mps 739 mmHg 58%
    15:00 +29°C° 0.4 mm 3 mps 739 mmHg 63%
    16:00 +28°C° 0.4 mm 3 mps 739 mmHg 68%
    17:00 +26°C° 1.7 mm 3 mps 739 mmHg 74%
    18:00 +24°C° 1.7 mm 3 mps 739 mmHg 81%
    19:00 +20°C° 1.7 mm 3 mps 739 mmHg 88%
    20:00 +20°C° 0.5 mm 2 mps 739 mmHg 88%
    21:00 +20°C° 0.5 mm 2 mps 739 mmHg 88%
    22:00 +21°C° 0.5 mm 1 mps 740 mmHg 88%
    23:00 +21°C° 0 mm 1 mps 739 mmHg 88%

    22 June, Saturday

    Time Temperature Precipitation Wind Pressure Humidity
    00:00 +21°C° 0 mm 1 mps 739 mmHg 88%
    01:00 +18°C° 0 mm 0 mps 739 mmHg 88%
    02:00 +18°C° 0 mm 0 mps 739 mmHg 88%
    03:00 +18°C° 0 mm 0 mps 739 mmHg 89%
    04:00 +18°C° 0 mm 0 mps 739 mmHg 89%
    05:00 +19°C° 0 mm 0 mps 739 mmHg 86%
    06:00 +22°C° 0 mm 1 mps 740 mmHg 83%
    07:00 +24°C° 0 mm 1 mps 740 mmHg 80%
    08:00 +25°C° 0.3 mm 1 mps 740 mmHg 75%
    09:00 +26°C° 0.3 mm 1 mps 739 mmHg 71%
    10:00 +28°C° 0.3 mm 1 mps 739 mmHg 66%
    11:00 +28°C° 0.4 mm 1 mps 739 mmHg 63%
    12:00 +29°C° 0.4 mm 1 mps 739 mmHg 59%
    13:00 +30°C° 0.4 mm 1 mps 739 mmHg 55%
    14:00 +30°C° 0 mm 1 mps 739 mmHg 55%
    15:00 +30°C° 0 mm 1 mps 739 mmHg 55%
    16:00 +30°C° 0 mm 1 mps 738 mmHg 54%
    17:00 +29°C° 0.4 mm 1 mps 738 mmHg 61%
    18:00 +27°C° 0.4 mm 1 mps 738 mmHg 68%
    19:00 +26°C° 0.4 mm 1 mps 739 mmHg 75%
    20:00 +25°C° 1.3 mm 1 mps 739 mmHg 78%
    21:00 +23°C° 1.3 mm 1 mps 739 mmHg 81%
    22:00 +22°C° 1.3 mm 1 mps 739 mmHg 84%
    23:00 +22°C° 0 mm 1 mps 739 mmHg 86%
    Show more